[[{"header":{"parameterUnit":"m.s-1","parameterCategory":1,"la1":30.2991,"la2":30.254,"lo1":-89.0895,"lo2":-89.0444,"dy":0.0017,"dx":0.0017,"nx":28,"ny":28,"refTime":"2023-08-27T09:00:00:Z","depth":0,"parameterNumber":2,"parameterNumberName":"U-component_of_WINDS"},"data":[0,0,0,0,0,0,0,0,0,0,0,0,0,0,0,0,0,0,0,0,0,0,0,0,0,0,0,0,0,0,0,0,0,0,0,0,0,0,0,0,0,0,0,0,0,0,0,0,0,0,0,0,0,0,0,0,0,0,0.372,0.3718,0,0.3569,0.3567,0.3565,0.3456,0.3455,0.3454,0.3453,0.3298,0.3295,0.3292,0,0,0,0,0,0,0,0,0,0,0,0,0,0.3914,0.3911,0.372,0.3718,0.3716,0.3569,0.3567,0.3565,0.3456,0.3455,0.3454,0.3453,0.3299,0.3295,0.3292,0,0,0,0,0,0,0,0,0,0,0,0,0,0.3803,0.391,0.372,0.3644,0.3636,0.357,0.3567,0.3564,0.3456,0.3455,0.3453,0.3452,0.3301,0.3296,0.3291,0.3288,0,0,0.3276,0.3274,0,0,0,0,0,0,0,0,0.381,0.3796,0.3657,0.3649,0.364,0.353,0.3578,0.3472,0.3457,0.3524,0.3453,0.3451,0.3376,0.3365,0.334,0.3281,0.3274,0.3276,0.3273,0.327,0.3269,0,0,0,0,0,0,0,0.3817,0.3802,0.366,0.3655,0.3645,0.3617,0.36,0.3558,0.346,0.3518,0.351,0.3494,0.3371,0.3345,0.3335,0.3272,0.3276,0.3271,0.3268,0.3266,0.3205,0.3206,0,0,0,0,0,0,0.3837,0.3809,0.3665,0.3656,0.3723,0.3615,0.3596,0.3567,0.346,0.3443,0.3495,0.3489,0.3354,0.3341,0.333,0.332,0.3271,0.3266,0.3263,0.3203,0.3205,0.3206,0,0,0,0,0,0,0.3842,0.3825,0.3671,0.373,0.3708,0.3613,0.3581,0.3564,0.3538,0.3442,0.3424,0.3486,0.3352,0.3336,0.33,0.3314,0.3264,0.3259,0.3202,0.3204,0.3206,0.3302,0,0,0,0,0,0,0.3848,0.3827,0.3826,0.3731,0.3706,0.3644,0.3582,0.3562,0.353,0.352,0.3429,0.3413,0.335,0.3308,0.3295,0.3306,0.3255,0.32,0.3203,0.3205,0.3297,0.3307,0.3316,0,0,0,0,0,0.3855,0.3859,0.3826,0.3809,0.3701,0.3645,0.3631,0.3558,0.3531,0.3529,0.3467,0.3416,0.3314,0.3305,0.3289,0.3299,0.3199,0.3202,0.3205,0.3293,0.3305,0.3315,0,0,0,0,0,0,0.3957,0.3845,0.3808,0.3781,0.3723,0.3627,0.3621,0.3573,0.3523,0.3516,0.3428,0.3409,0.3382,0.3336,0.3328,0.3291,0.325,0.325,0.3323,0.3333,0.3342,0.3354,0.3251,0,0,0,0,0,0.3977,0.3941,0.3844,0.383,0.3803,0.3718,0.369,0.3639,0.3577,0.3552,0.3488,0.3429,0.3383,0.3355,0.3308,0.329,0.3269,0.3289,0.3298,0.3306,0.3308,0.3296,0.3304,0.3216,0.3216,0.3216,0,0,0.4017,0.3951,0.3933,0.3849,0.3798,0.3763,0.3698,0.3663,0.3636,0.3546,0.3508,0.3459,0.3387,0.336,0.3345,0.3322,0.3327,0.331,0.3317,0.3314,0.3299,0.3308,0.3315,0.3218,0.3217,0.3217,0,0,0.4072,0.4018,0.4,0.3951,0.3876,0.3819,0.3815,0.3726,0.369,0.365,0.3582,0.3549,0.3472,0.3424,0.339,0.3427,0.3378,0.3414,0.3462,0.3452,0.3459,0.3464,0.3479,0.3485,0.3415,0.3416,0.3416,0,0.4131,0.4075,0.3998,0.3967,0.3932,0.3849,0.3831,0.3787,0.3701,0.3679,0.3654,0.3556,0.3502,0.3463,0.3472,0.3446,0.344,0.3425,0.3464,0.3469,0.3473,0.3486,0.3492,0.3421,0.342,0.342,0.3419,0,0.4153,0.4115,0.411,0.4029,0.3993,0.3969,0.3888,0.3861,0.3813,0.376,0.372,0.3652,0.359,0.3577,0.353,0.3531,0.3519,0.348,0.3437,0.3488,0.3499,0.3503,0.3428,0.3426,0.3425,0.3423,0,0,0.4269,0.4145,0.4145,0.4108,0.4018,0.3988,0.396,0.39,0.3879,0.3822,0.3797,0.3734,0.3697,0.3659,0.3605,0.3596,0.3631,0.3557,0.3554,0.3575,0.363,0.3662,0.3669,0.3597,0.3598,0.3598,0.3637,0,0.4312,0.4258,0.4187,0.4157,0.4122,0.4043,0.4019,0.3962,0.391,0.3873,0.3815,0.3773,0.3727,0.3703,0.369,0.363,0.3641,0.3626,0.3574,0.3574,0.3597,0.3674,0.3707,0.3747,0.364,0.3641,0.3641,0,0.4354,0.4302,0.4269,0.4184,0.4166,0.4146,0.4085,0.405,0.3984,0.3947,0.3904,0.3847,0.3814,0.3774,0.3728,0.3719,0.3693,0.366,0.366,0.3654,0.3612,0.3672,0.3757,0.3764,0.3647,0.3647,0.3646,0,0.4445,0.4366,0.4336,0.4306,0.4205,0.4193,0.415,0.4082,0.4051,0.3998,0.3977,0.392,0.389,0.3848,0.3777,0.3754,0.3739,0.3693,0.3708,0.371,0.371,0.3711,0.3795,0.3691,0.3691,0.3691,0.3691,0,0.4501,0.4485,0.4376,0.4358,0.4337,0.4255,0.4237,0.4187,0.4127,0.4098,0.4025,0.4,0.3906,0.387,0.3814,0.3785,0.3771,0.3741,0.3727,0.3749,0.3753,0.3732,0.3728,0.3692,0.3692,0.3692,0.3691,0,0.4599,0.4526,0.4488,0.4396,0.4372,0.4361,0.4282,0.4261,0.4205,0.417,0.4157,0.4069,0.4022,0.3947,0.3878,0.384,0.3822,0.3797,0.3845,0.3836,0.3857,0.3857,0.3931,0.3937,0.3829,0.383,0.3831,0,0.4641,0.4626,0.4532,0.4508,0.4468,0.4429,0.4397,0.4316,0.4285,0.4209,0.4198,0.4145,0.4099,0.4028,0.3959,0.3906,0.388,0.3909,0.3871,0.3894,0.3882,0.3885,0.3884,0.3919,0.3921,0.3922,0.3923,0,0.4723,0.4687,0.4644,0.4588,0.4551,0.4503,0.4451,0.4435,0.4342,0.4312,0.4263,0.4228,0.4157,0.4107,0.4044,0.3999,0.3947,0.3935,0.3936,0.396,0.3989,0.3975,0.3871,0.3934,0.3933,0.3932,0.3932,0.3931,0.4795,0.4779,0.4711,0.4665,0.4617,0.457,0.4547,0.4488,0.4447,0.4384,0.4338,0.4293,0.4227,0.4137,0.4096,0.4059,0.4036,0.4037,0.4037,0.4039,0.4049,0.3993,0.4047,0.4047,0.4046,0.4046,0.4046,0,0.4875,0.4827,0.4786,0.4716,0.468,0.4632,0.4572,0.4545,0.4507,0.4449,0.4406,0.4351,0.4301,0.4228,0.4173,0.4158,0.4132,0.4146,0.4147,0.4138,0.4072,0.4077,0.4168,0.4168,0.4168,0.4168,0.4168,0.4168,0.4913,0.4884,0.484,0.4786,0.4738,0.4694,0.4664,0.4621,0.4575,0.4517,0.4475,0.4427,0.4364,0.4303,0.4256,0.4236,0.422,0.4242,0.4214,0.4154,0.4143,0.4132,0.4137,0.4239,0.4239,0.4284,0.4284,0.4285]},{"header":{"parameterUnit":"m.s-1","parameterCategory":1,"la1":30.2991,"la2":30.254,"lo1":-89.0895,"lo2":-89.0444,"dy":0.0017,"dx":0.0017,"nx":28,"ny":28,"refTime":"2023-08-27T09:00:00:Z","depth":0,"parameterNumber":3,"parameterNumberName":"V-component_of_WINDS"},"data":[0,0,0,0,0,0,0,0,0,0,0,0,0,0,0,0,0,0,0,0,0,0,0,0,0,0,0,0,0,0,0,0,0,0,0,0,0,0,0,0,0,0,0,0,0,0,0,0,0,0,0,0,0,0,0,0,0,0,-2.578,-2.578,0,-2.5762,-2.5762,-2.5762,-2.5715,-2.5714,-2.5713,-2.5712,-2.5695,-2.5695,-2.5696,0,0,0,0,0,0,0,0,0,0,0,0,0,-2.5773,-2.5774,-2.578,-2.578,-2.5779,-2.5762,-2.5762,-2.5762,-2.5715,-2.5714,-2.5713,-2.5712,-2.5695,-2.5695,-2.5696,0,0,0,0,0,0,0,0,0,0,0,0,0,-2.5768,-2.5774,-2.578,-2.5754,-2.5752,-2.5762,-2.5762,-2.5762,-2.5715,-2.5714,-2.5712,-2.5711,-2.5694,-2.5695,-2.5696,-2.573,0,0,-2.5698,-2.5698,0,0,0,0,0,0,0,0,-2.5768,-2.5768,-2.5758,-2.5756,-2.5753,-2.5739,-2.5753,-2.5751,-2.5716,-2.5729,-2.5712,-2.571,-2.5711,-2.571,-2.571,-2.573,-2.5729,-2.5698,-2.5698,-2.5699,-2.5699,0,0,0,0,0,0,0,-2.5769,-2.5769,-2.5773,-2.5758,-2.5755,-2.5743,-2.5741,-2.5753,-2.5729,-2.5728,-2.5724,-2.5723,-2.5709,-2.571,-2.5709,-2.5729,-2.5698,-2.5699,-2.5699,-2.5699,-2.5775,-2.5776,0,0,0,0,0,0,-2.5773,-2.5769,-2.5773,-2.5772,-2.5757,-2.5745,-2.5742,-2.5745,-2.5728,-2.5724,-2.5724,-2.5721,-2.5709,-2.5709,-2.5709,-2.5747,-2.5699,-2.5699,-2.57,-2.5773,-2.5775,-2.5777,0,0,0,0,0,0,-2.5773,-2.5774,-2.5774,-2.577,-2.5769,-2.5746,-2.575,-2.5746,-2.5746,-2.5726,-2.5721,-2.5729,-2.5708,-2.5708,-2.5725,-2.5746,-2.57,-2.57,-2.5771,-2.5774,-2.5776,-2.5826,0,0,0,0,0,0,-2.5773,-2.5774,-2.5787,-2.5771,-2.577,-2.5791,-2.5752,-2.5746,-2.5747,-2.5743,-2.5729,-2.5725,-2.5707,-2.5724,-2.5726,-2.5746,-2.5701,-2.5769,-2.5772,-2.5775,-2.5822,-2.5829,-2.5836,0,0,0,0,0,-2.5773,-2.5802,-2.5788,-2.5788,-2.5785,-2.5792,-2.5792,-2.577,-2.5749,-2.5762,-2.5749,-2.5726,-2.5744,-2.5726,-2.5728,-2.5749,-2.5768,-2.5771,-2.5775,-2.5819,-2.5828,-2.5836,0,0,0,0,0,0,-2.5822,-2.5799,-2.5783,-2.5808,-2.5802,-2.5785,-2.58,-2.578,-2.578,-2.5776,-2.5748,-2.5746,-2.5767,-2.576,-2.5741,-2.5781,-2.5752,-2.5756,-2.5785,-2.5793,-2.58,-2.5801,-2.5702,0,0,0,0,0,-2.5835,-2.5843,-2.5823,-2.5847,-2.5845,-2.5823,-2.5825,-2.5809,-2.5802,-2.5799,-2.5787,-2.5782,-2.5786,-2.5789,-2.5792,-2.5821,-2.5817,-2.5836,-2.5843,-2.5848,-2.5852,-2.5866,-2.5874,-2.5788,-2.5788,-2.5788,0,0,-2.5863,-2.5852,-2.5859,-2.5856,-2.585,-2.5858,-2.5821,-2.5832,-2.5838,-2.5801,-2.5816,-2.5808,-2.5799,-2.5823,-2.5832,-2.5817,-2.5875,-2.5853,-2.5858,-2.5858,-2.5871,-2.5879,-2.5886,-2.5791,-2.579,-2.579,0,0,-2.5919,-2.5912,-2.593,-2.5924,-2.5915,-2.59,-2.5905,-2.589,-2.5882,-2.5897,-2.587,-2.5876,-2.5885,-2.588,-2.5878,-2.5932,-2.591,-2.5933,-2.5969,-2.5983,-2.599,-2.5995,-2.6014,-2.6021,-2.5937,-2.5937,-2.5937,0,-2.5955,-2.5967,-2.5942,-2.5954,-2.5954,-2.592,-2.5939,-2.5935,-2.5927,-2.5927,-2.5911,-2.5919,-2.5912,-2.5933,-2.5946,-2.5946,-2.595,-2.5935,-2.5991,-2.5996,-2.6001,-2.6019,-2.6026,-2.594,-2.594,-2.5939,-2.5939,0,-2.6012,-2.602,-2.6036,-2.6029,-2.603,-2.6046,-2.6023,-2.6028,-2.6011,-2.5998,-2.6013,-2.6003,-2.6003,-2.6007,-2.599,-2.6025,-2.6016,-2.5996,-2.5966,-2.6013,-2.6028,-2.6035,-2.5944,-2.5943,-2.5942,-2.5941,0,0,-2.6098,-2.6076,-2.6082,-2.6078,-2.6066,-2.6072,-2.6085,-2.6085,-2.6089,-2.6085,-2.6095,-2.6102,-2.6083,-2.6081,-2.6064,-2.6077,-2.6119,-2.6054,-2.6054,-2.6066,-2.6156,-2.6171,-2.6179,-2.6105,-2.6106,-2.6107,-2.6156,0,-2.6149,-2.6171,-2.6149,-2.6176,-2.6183,-2.6151,-2.6163,-2.6156,-2.6144,-2.6149,-2.6136,-2.6141,-2.6115,-2.6114,-2.6125,-2.6112,-2.6136,-2.6108,-2.6114,-2.6114,-2.6116,-2.6187,-2.6204,-2.6251,-2.6162,-2.6163,-2.6164,0,-2.6213,-2.6211,-2.6238,-2.6223,-2.6225,-2.6236,-2.6233,-2.6238,-2.623,-2.622,-2.6218,-2.6197,-2.621,-2.6181,-2.6197,-2.6178,-2.6179,-2.6173,-2.6174,-2.6174,-2.6142,-2.6188,-2.6266,-2.6273,-2.6174,-2.6173,-2.6172,0,-2.6272,-2.6277,-2.6293,-2.6291,-2.6274,-2.6282,-2.6275,-2.6265,-2.6266,-2.6264,-2.6264,-2.6264,-2.6263,-2.6263,-2.6243,-2.6224,-2.6261,-2.6231,-2.6253,-2.6254,-2.6263,-2.6262,-2.6341,-2.6264,-2.6264,-2.6264,-2.6264,0,-2.6332,-2.635,-2.6319,-2.6329,-2.6348,-2.6323,-2.6342,-2.6332,-2.6323,-2.6331,-2.6303,-2.6311,-2.6284,-2.6288,-2.6272,-2.6288,-2.6288,-2.6281,-2.6276,-2.6283,-2.6284,-2.6283,-2.6279,-2.6266,-2.6266,-2.6265,-2.6265,0,-2.6402,-2.6382,-2.6398,-2.638,-2.6376,-2.639,-2.6375,-2.6383,-2.637,-2.6379,-2.638,-2.6359,-2.6363,-2.6342,-2.6343,-2.6332,-2.6355,-2.6346,-2.6358,-2.6355,-2.6378,-2.6376,-2.6459,-2.6468,-2.6386,-2.6387,-2.6388,0,-2.6441,-2.6454,-2.6437,-2.644,-2.6434,-2.644,-2.644,-2.6416,-2.6417,-2.6408,-2.6418,-2.642,-2.642,-2.6427,-2.6412,-2.6412,-2.6402,-2.6431,-2.6402,-2.6408,-2.6401,-2.6401,-2.6402,-2.6437,-2.6438,-2.6438,-2.6439,0,-2.6513,-2.6503,-2.6504,-2.6502,-2.6504,-2.6501,-2.6497,-2.6501,-2.6474,-2.6477,-2.6481,-2.6481,-2.6481,-2.6483,-2.648,-2.6473,-2.6452,-2.6448,-2.6453,-2.646,-2.6467,-2.6463,-2.6374,-2.6447,-2.6446,-2.6445,-2.6445,-2.6445,-2.6568,-2.6578,-2.6567,-2.657,-2.6564,-2.656,-2.6567,-2.6554,-2.6557,-2.6554,-2.654,-2.6546,-2.6537,-2.653,-2.6525,-2.653,-2.6516,-2.6524,-2.6525,-2.6527,-2.6531,-2.6466,-2.6529,-2.6529,-2.6529,-2.6528,-2.6528,0,-2.6638,-2.663,-2.6633,-2.6627,-2.6629,-2.6609,-2.6602,-2.6606,-2.6611,-2.6604,-2.6605,-2.6608,-2.661,-2.6594,-2.6594,-2.66,-2.659,-2.6601,-2.66,-2.6599,-2.6544,-2.6539,-2.6609,-2.6609,-2.6609,-2.6609,-2.6609,-2.6609,-2.6675,-2.669,-2.6678,-2.6689,-2.6681,-2.6686,-2.6684,-2.6681,-2.6675,-2.668,-2.6681,-2.6671,-2.666,-2.6659,-2.6659,-2.6654,-2.6655,-2.6669,-2.6661,-2.661,-2.6603,-2.6595,-2.659,-2.667,-2.667,-2.6715,-2.6716,-2.6716]}]]